GW4541 Weather Reports


time (UTC)temp
F
wind
direction
speed
knots
gust
knots
rain 1hr
in
rain 24hr
in
rain mn
in
humidity
%
barometer
mb
20260506134055 47 72 0.0 3.5 0.03 1.08 1.07 99 1007.0
20260506132056 47 117 0.9 6.1 0.03 1.07 1.06 99 1006.8
20260506131054 47 344 1.7 3.5 0.02 1.06 1.05 99 1006.8
20260506130055 47 38 0.0 2.6 0.03 1.06 1.05 99 1006.7
20260506125055 47 44 0.0 3.5 0.02 1.05 1.04 99 1006.8
20260506123054 47 2 1.7 5.2 0.03 1.05 1.04 99 1006.7
20260506122055 46 87 0.0 6.1 0.02 1.04 1.03 99 1006.5
20260506121055 46 53 0.0 3.5 0.03 1.04 1.03 99 1006.5
20260506120055 46 46 0.0 3.5 0.02 1.03 1.02 99 1006.3
20260506115054 46 94 0.0 1.7 0.03 1.03 1.02 99 1006.2
20260506113055 46 139 0.9 6.1 0.03 1.02 1.01 99 1006.4
20260506112055 46 31 0.0 6.1 0.04 1.02 1.01 99 1006.2
20260506110055 45 176 0.0 5.2 0.04 1.01 1.00 99 1006.4
20260506105054 46 53 0.9 6.1 0.04 1.00 1.00 99 1006.4
20260506104055 45 346 0.9 3.5 0.05 1.00 0.99 99 1006.2
20260506103055 45 330 1.7 3.5 0.05 0.99 0.98 99 1006.1
20260506102054 45 103 1.7 5.2 0.05 0.98 0.98 99 1006.1
20260506101055 45 335 3.5 3.5 0.05 0.98 0.97 99 1006.0
20260506100054 45 27 1.7 6.1 0.04 0.97 0.96 99 1006.2
20260506095055 45 27 0.9 5.2 0.03 0.96 0.95 99 1006.1
20260506093055 44 58 0.0 3.5 0.01 0.94 0.93 99 1005.7
20260506092054 45 48 0.9 3.5 0.00 0.93 0.92 99 1005.7
20260506091055 44 91 0.0 3.5 0.01 0.93 0.92 99 1005.7
20260506085055 44 78 0.0 5.2 0.01 0.93 0.92 99 1005.5
20260506084054 44 56 1.7 5.2 0.01 0.93 0.92 99 1005.6
20260506083055 44 131 2.6 3.5 0.02 0.93 0.92 99 1005.6
20260506082055 44 11 1.7 7.8 0.03 0.93 0.92 99 1005.4
20260506081055 44 16 1.7 6.1 0.02 0.92 0.91 99 1005.3
20260506073055 44 322 0.9 6.1 0.05 0.91 0.90 99 1005.3
20260506072055 44 117 0.9 6.1 0.05 0.90 0.89 99 1005.3
20260506062055 47 30 1.7 3.5 0.11 0.85 0.84 99 1005.1
20260506061055 47 0 1.7 6.1 0.10 0.83 0.83 99 1004.6
20260506051056 47 13 0.0 1.7 0.07 0.73 0.72 99 1004.6
20260506045055 47 70 0.0 2.6 0.08 0.71 0.70 99 1004.8
20260506044056 47 56 0.0 3.5 0.08 0.69 0.68 99 1004.6
20260506043054 47 20 0.9 3.5 0.10 0.68 0.67 99 1004.8
20260506042055 47 46 0.0 1.7 0.11 0.67 0.66 99 1004.7
20260506041055 47 354 0.0 3.5 0.13 0.66 0.65 99 1004.7
20260506040055 47 68 0.0 2.6 0.15 0.65 0.64 99 1004.7
20260506034055 47 45 0.0 2.6 0.17 0.61 0.60 99 1004.8
20260506033055 48 84 1.7 5.2 0.17 0.58 0.57 99 1004.7
20260506032055 48 64 0.0 5.2 0.16 0.56 0.55 99 1004.8
20260506031055 48 42 0.9 3.5 0.16 0.53 0.52 99 1005.1
20260506030055 48 28 1.7 5.2 0.15 0.50 0.49 99 1005.1
20260506025055 48 356 0.0 1.7 0.14 0.48 0.47 99 1005.1
20260506023055 49 28 1.7 2.6 0.10 0.41 0.41 99 1005.3
20260506022054 49 7 0.0 2.6 0.09 0.39 0.38 99 1005.3
20260506021055 49 31 0.0 2.6 0.09 0.37 0.36 99 1005.4
20260506015055 49 46 0.0 2.6 0.09 0.34 0.33 99 1005.5
20260506014055 49 56 0.0 2.6 0.11 0.33 0.32 99 1005.7
20260506013055 49 97 0.0 3.5 0.12 0.31 0.30 99 1005.7
20260506012055 49 8 0.0 2.6 0.12 0.31 0.29 99 1005.7
20260506011055 49 120 0.0 2.6 0.12 0.29 0.27 99 1005.8
20260506010055 50 25 0.0 3.5 0.12 0.28 0.26 99 1005.8
20260506005055 50 30 0.9 2.6 0.11 0.26 0.24 99 1005.9
20260506004055 50 77 0.0 2.6 0.10 0.23 0.21 99 1005.9
20260506003055 50 80 0.0 1.7 0.08 0.20 0.18 99 1005.9
20260506002055 50 93 0.0 1.7 0.08 0.19 0.17 99 1006.2
20260506000055 50 63 0.0 5.2 0.08 0.16 0.14 99 1006.1
20260505235055 50 140 1.7 2.6 0.08 0.16 0.13 99 1006.4
20260505234054 50 67 1.7 5.2 0.08 0.14 0.11 99 1006.5
20260505233054 50 105 0.9 3.5 0.08 0.13 0.10 99 1006.4
20260505231054 51 63 0.9 3.5 0.08 0.11 0.08 99 1006.3
20260505230055 51 81 0.9 3.5 0.06 0.09 0.06 99 1006.6
20260505225055 51 19 0.0 2.6 0.05 0.08 0.05 99 1006.7
20260505224055 51 39 0.0 6.1 0.03 0.06 0.03 99 1006.6
20260505222055 51 359 2.6 5.2 0.00 0.04 0.00 99 1006.8
20260505221055 51 158 0.9 1.7 0.01 0.04 0.00 99 1007.0
20260505220056 51 34 1.7 2.6 0.01 0.04 0.00 99 1006.8
20260505214055 52 66 1.7 3.5 0.01 0.04 0.04 99 1007.1
20260505213055 52 322 2.6 5.2 0.01 0.05 0.04 99 1007.1
20260505212054 52 80 0.0 3.5 0.01 0.05 0.04 99 1007.1
20260505211054 52 73 2.6 5.2 0.00 0.04 0.03 99 1007.3
20260505210055 52 62 0.9 2.6 0.00 0.05 0.03 99 1007.2
20260505204055 52 50 0.0 6.1 0.00 0.05 0.03 99 1007.4
20260505202054 52 24 2.6 3.5 0.00 0.05 0.03 99 1007.4
20260505201055 52 27 0.0 3.5 0.00 0.05 0.03 99 1007.3
20260505200055 52 117 0.0 3.5 0.00 0.05 0.03 99 1007.3
20260505195056 52 54 0.0 5.2 0.00 0.06 0.03 99 1007.2
20260505194055 52 42 0.0 5.2 0.00 0.06 0.03 99 1007.3
20260505193055 52 31 0.9 3.5 0.00 0.07 0.03 99 1007.3
20260505192055 52 10 1.7 5.2 0.00 0.08 0.03 99 1007.2
20260505190054 52 80 0.0 5.2 0.00 0.18 0.03 99 1007.1
20260505185055 52 69 0.0 5.2 0.00 0.18 0.03 98 1007.3
20260505184055 52 16 0.0 2.6 0.00 0.18 0.03 98 1007.3
20260505183055 52 64 0.9 2.6 0.00 0.18 0.03 98 1007.4
20260505182054 52 19 0.9 5.2 0.00 0.18 0.03 98 1007.3
20260505180054 53 33 0.0 5.2 0.00 0.18 0.03 97 1007.3
20260505175054 52 66 0.0 3.5 0.00 0.18 0.03 97 1007.3
20260505174054 52 54 0.9 3.5 0.00 0.18 0.03 97 1007.5
20260505173054 53 91 0.9 1.7 0.00 0.18 0.03 97 1007.5
20260505172055 52 97 0.0 7.0 0.00 0.18 0.03 97 1007.6
20260505171055 53 88 0.9 3.5 0.00 0.18 0.03 97 1007.4
20260505170056 52 62 0.0 6.1 0.00 0.18 0.03 96 1007.5
20260505165054 52 58 0.9 6.1 0.00 0.18 0.03 96 1007.4
20260505163055 52 47 0.0 3.5 0.00 0.18 0.03 96 1007.8
20260505162054 53 77 0.0 3.5 0.00 0.18 0.03 96 1007.6
20260505161055 52 346 1.7 2.6 0.00 0.18 0.03 96 1007.7
20260505153055 52 50 0.0 3.5 0.00 0.18 0.03 96 1008.1
20260505152055 52 83 0.0 5.2 0.00 0.18 0.03 95 1008.3
20260505151055 53 62 0.0 3.5 0.00 0.18 0.03 95 1008.2